This is the latest recevied weather packets stored in our database for station/object CE3TDM-12. If no packets are shown the sender has not sent any weather packets the latest 10 day(s).
| Time | Temp. | Humidity | Pressure | Rain* | Wind** | Luminosity | Snow |
|---|---|---|---|---|---|---|---|
| 1788045890 | 3.33° C | 54% | 776.8 hPa | - | - | - | - |
| 1788045589 | 3.33° C | 54% | 776.8 hPa | - | - | - | - |
| 1788045289 | 3.89° C | 55% | 776.8 hPa | - | - | - | - |
| 1788044988 | 3.89° C | 54% | 776.8 hPa | - | - | - | - |
| 1788044688 | 3.89° C | 55% | 776.6 hPa | - | - | - | - |
| 1788044387 | 4.44° C | 54% | 776.7 hPa | - | - | - | - |
| 1788044087 | 4.44° C | 54% | 776.5 hPa | - | - | - | - |
| 1788043786 | 4.44° C | 54% | 776.5 hPa | - | - | - | - |
| 1788043486 | 5° C | 54% | 776.2 hPa | - | - | - | - |
| 1788043186 | 5.56° C | 53% | 776.3 hPa | - | - | - | - |
| 1788042885 | 5.56° C | 54% | 776.1 hPa | - | - | - | - |
| 1788042585 | 6.11° C | 53% | 776.2 hPa | - | - | - | - |
| 1788042284 | 6.67° C | 53% | 776.1 hPa | - | - | - | - |
| 1788041984 | 6.67° C | 52% | 776 hPa | - | - | - | - |
| 1788041681 | 7.22° C | 53% | 776.2 hPa | - | - | - | - |
| 1788041380 | 7.78° C | 52% | 776 hPa | - | - | - | - |
| 1788041079 | 8.33° C | 52% | 776.1 hPa | - | - | - | - |
| 1788040779 | 8.89° C | 51% | 776.1 hPa | - | - | - | - |
| 1788040478 | 9.44° C | 51% | 776.1 hPa | - | - | - | - |
| 1788040177 | 10° C | 51% | 776 hPa | - | - | - | - |
| 1788039875 | 10.56° C | 50% | 775.8 hPa | - | - | - | - |
| 1788039572 | 11.67° C | 49% | 775.9 hPa | - | - | - | - |
| 1788039271 | 12.22° C | 49% | 776 hPa | - | - | - | - |
| 1788038971 | 11.67° C | 50% | 776 hPa | - | - | - | - |
| 1788038670 | 11.67° C | 50% | 776 hPa | - | - | - | - |
* Rain since midnight (hover to see other rain measurements)
** Current wind speed in m/s (hover to see current wind gust speed)